Home   Weather   Sunrise Manor   Past weeks

Flag for USA Past Weather in Sunrise Manor, Nevada, USA — Yesterday and Last 2 Weeks

Now
56 °F

Sunny.


Feels Like: 51 °F
Forecast: 56 / 77 °F
Wind: 18 mph from West

Location: Nellis Air Force Base

Current Time: Apr 29, 2017 at 6:36:41 am

Latest Report: Apr 29, 2017 at 5:58 am


Visibility: 10 mi

Pressure: 30.02 "Hg (28.09 "Hg at 555m altitude)

Humidity: 26%

Dew Point: 21 °F

Location of Sunrise ManorLocation

Past Weather in Sunrise Manor — Graph

°F

Sunrise Manor Temperature Yesterday

Maximum temperature yesterday: 72 °F (at 2:33 pm)
Minimum temperature yesterday: 59 °F (at 6:18 am)
Average temperature yesterday: 66 °F

High & Low Weather Summary for the Past Weeks

 TemperatureHumidityPressure
High89 °F (Apr 23, 1:58 pm)52% (Apr 19, 6:58 am)30.10 "Hg (Apr 19, 6:58 am)
Low54 °F (Apr 14, 6:58 am)5% (Apr 16, 5:58 pm)29.48 "Hg (Apr 24, 6:58 pm)
Average72 °F19%29.81 "Hg
* Reported Apr 14 4:58 am — Apr 29 4:58 am, Sunrise Manor, Weather by CustomWeather, © 2017

Note: Actual official high and low records may vary slightly from our data, if they occured in-between our weather recording intervals... More about our weather records

Advertising

Sunrise Manor Weather History for the Previous 24 Hours

Scroll right to see more
 ConditionsComfort  
Time TempWeatherWind HumidityBarometerVisibility
4:58 am
Sat, Apr 29
56 °FClear.23 mph25%30.01 "Hg10 mi
3:58 am56 °FClear.18 mph25%30.00 "Hg10 mi
2:58 am57 °FClear.12 mph23%29.98 "Hg10 mi
1:58 am59 °FClear.12 mph23%29.98 "Hg10 mi
12:58 am60 °FClear.16 mph23%29.96 "Hg10 mi
11:58 pm
Fri, Apr 28
61 °FClear.22 mph21%29.94 "Hg10 mi
10:58 pm61 °FClear.17 mph20%29.93 "Hg10 mi
9:58 pm62 °FClear.17 mph16%29.93 "Hg10 mi
8:58 pm61 °FClear.17 mph21%29.90 "Hg10 mi
7:58 pm64 °FClear.18 mph19%29.86 "Hg10 mi
6:58 pm67 °FSunny.25 mph10%29.81 "Hg10 mi
5:58 pm68 °FSunny.23 mph10%29.78 "Hg10 mi
4:58 pm70 °FPassing clouds.23 mph7%29.77 "Hg10 mi
4:36 pm70 °FScattered clouds.14 mph7%29.77 "Hg10 mi
3:58 pm71 °FScattered clouds.18 mph7%29.77 "Hg10 mi
3:31 pm70 °FScattered clouds.23 mph7%29.77 "Hg10 mi
2:58 pm72 °FSunny.22 mph8%29.78 "Hg10 mi
2:33 pm72 °FSunny.18 mph8%29.78 "Hg10 mi
2:18 pm70 °FPassing clouds.13 mph8%29.78 "Hg10 mi
1:58 pm69 °FScattered clouds.7 mph9%29.78 "Hg10 mi
1:40 pm68 °FPassing clouds.15 mph10%29.78 "Hg10 mi
1:35 pm70 °FSunny.22 mph10%29.78 "Hg10 mi
12:58 pm70 °FSunny.14 mph9%29.78 "Hg10 mi
12:41 pm70 °FSunny.23 mph8%29.79 "Hg10 mi
11:58 am67 °FSunny.14 mph11%29.80 "Hg10 mi
11:34 am66 °FSunny.17 mph14%29.80 "Hg10 mi
11:01 am66 °FSunny.13 mph14%29.82 "Hg10 mi
10:30 am64 °FSunny.18 mph15%29.83 "Hg10 mi
10:20 am64 °FSunny.14 mph15%29.82 "Hg10 mi
10:00 am64 °FSunny.17 mph15%29.82 "Hg10 mi
9:36 am64 °FSunny.15 mph16%29.82 "Hg10 mi
8:58 am62 °FSunny.20 mph17%29.83 "Hg10 mi
7:58 am62 °FSunny.23 mph17%29.83 "Hg10 mi
6:58 am60 °FSunny.21 mph18%29.80 "Hg10 mi
6:18 am59 °FStrong thunderstorms. Sunny.30 mph18%29.78 "Hg10 mi
Weather by CustomWeather, © 2017

See weather overviewHow to use our weather pages